Theta_e
317 319 319 320 320 320 319 321 325 322 322 324 324 328 327 321 318 318 318 314 311 316 320 318 318 316 316 316 312 312 314 311 311 312 313 315 316 315 316 316 316 316 317 317 317 317 317 317 318 318 318 318 318 318 317 317 317 317 316 316 317 317 317 318 318 318 318 317 317 316 317 319 321 324 326 325 325 324 324 327 331 332 332 330 329 329
319 320 320 324 323 320 319 319 319 316 318 322 323 323 321 319 319 316 316 316 311 314 321 319 318 318 316 316 312 311 312 311 311 312 312 314 315 314 315 315 316 316 316 316 317 317 317 317 317 318 318 318 318 318 317 318 317 317 317 316 316 316 317 317 317 317 317 316 316 316 316 316 317 319 322 322 323 324 324 325 326 328 329 328 327 329
320 322 323 322 315 315 316 316 317 319 324 327 323 320 319 320 320 317 317 319 315 315 323 323 320 318 316 316 313 310 312 313 313 313 313 314 313 314 314 315 316 315 316 316 316 317 316 317 317 317 318 317 318 318 318 318 318 317 317 317 316 316 316 316 317 317 318 317 317 317 317 317 318 319 319 321 322 324 325 325 325 326 327 328 327 325
320 323 321 314 310 315 316 316 318 321 324 328 324 321 321 321 320 319 318 318 317 316 319 322 320 317 317 319 318 313 311 313 314 314 314 314 313 315 315 315 316 315 316 316 316 317 316 317 317 317 317 318 318 318 318 318 318 318 318 317 317 316 316 316 317 317 317 319 319 319 319 319 319 320 320 322 322 323 324 324 325 325 324 326 327 325
322 320 313 311 315 320 318 315 318 319 317 322 331 331 325 321 318 319 321 319 317 317 317 318 319 323 326 329 330 320 313 314 315 315 316 316 316 316 316 315 316 316 316 316 316 317 317 317 317 317 318 318 318 318 318 318 318 318 318 318 317 317 317 316 316 317 317 319 320 320 320 320 320 320 321 321 320 320 320 321 322 321 322 324 326 327
322 315 311 316 318 320 321 319 321 322 318 318 328 332 326 325 323 322 324 322 319 319 318 316 317 330 335 329 328 325 319 318 316 313 315 318 317 317 317 317 317 317 317 317 317 317 317 317 317 318 318 318 318 319 319 319 319 319 318 318 318 317 317 317 317 317 317 318 319 319 319 319 318 318 318 317 316 316 317 317 318 319 321 321 322 326
318 314 316 322 320 320 321 321 320 322 322 317 319 324 327 331 328 325 323 318 320 319 316 315 316 323 326 319 319 319 317 317 315 311 312 314 315 315 317 318 318 318 317 318 319 318 318 318 319 319 319 319 319 319 319 319 319 319 319 318 318 317 317 317 317 317 317 318 318 318 318 317 317 316 315 315 315 315 315 316 317 319 320 321 321 324
317 317 319 323 324 321 320 320 319 321 323 319 318 322 327 328 327 330 326 319 322 320 318 322 321 320 321 319 318 316 315 318 318 317 315 312 313 313 314 318 318 318 318 318 319 320 320 320 319 319 319 319 319 319 319 319 319 318 318 318 317 317 317 316 316 317 317 317 317 317 317 317 316 315 315 315 315 315 315 316 316 317 319 321 321 323
315 321 322 322 324 322 323 324 319 322 325 320 318 322 325 326 328 335 333 326 323 317 319 325 319 318 325 329 325 317 317 322 324 326 321 312 312 313 314 317 318 317 318 319 320 320 320 319 319 319 319 319 319 319 319 318 318 318 317 317 317 317 316 316 316 316 316 316 316 316 316 315 315 315 315 315 315 315 315 315 315 315 315 317 319 321
314 317 319 320 323 323 324 322 318 324 326 317 316 322 325 327 329 331 330 326 322 316 319 326 319 315 323 330 328 318 319 325 323 323 317 310 312 315 316 316 317 318 318 319 320 320 319 319 319 319 319 319 318 318 318 318 318 318 317 317 317 317 317 316 316 316 316 316 315 315 315 315 315 315 315 315 315 314 314 314 313 313 312 313 315 317
313 313 314 316 319 319 319 316 314 319 317 314 322 327 326 328 330 332 331 323 317 318 323 326 319 314 319 327 327 319 320 324 320 320 320 316 315 315 317 317 318 319 319 320 320 319 319 318 318 319 318 318 318 318 318 318 318 318 318 317 318 317 317 317 317 316 316 316 316 315 315 315 315 315 314 314 314 314 313 313 312 312 312 311 311 312
315 315 314 314 313 313 317 317 315 315 314 317 330 330 322 326 328 329 331 323 316 320 324 325 320 313 316 325 326 321 321 321 318 321 326 322 316 317 319 319 320 320 320 320 319 318 318 318 318 318 318 318 318 318 318 318 318 318 318 318 318 317 317 317 317 317 317 316 316 316 315 315 315 314 314 314 314 314 313 313 312 312 312 311 311 311
318 319 314 312 313 313 321 324 318 320 322 321 325 324 318 321 322 321 325 323 321 319 317 321 321 315 317 322 321 321 322 321 317 316 318 317 317 320 320 320 320 320 320 319 318 319 318 318 318 318 318 318 318 318 318 318 318 318 317 317 317 317 317 317 317 317 316 316 316 316 315 315 315 315 315 314 314 314 314 313 313 312 312 312 311 310
320 322 316 314 316 314 319 324 319 321 324 319 318 320 320 321 319 320 322 319 320 320 316 316 318 319 321 320 319 321 318 316 313 313 315 316 317 319 319 319 320 319 319 319 319 319 318 318 318 318 318 318 318 318 318 317 317 317 317 317 317 317 317 317 317 317 317 316 316 316 316 315 315 315 315 315 314 314 314 313 313 313 312 312 311 311
318 321 320 318 318 316 317 320 321 322 320 318 319 317 319 324 323 323 323 319 319 321 318 315 318 324 325 317 316 316 312 313 314 315 316 316 317 318 317 319 319 319 319 319 319 319 318 318 318 318 318 317 318 317 317 317 317 317 317 317 317 317 317 317 317 317 317 317 316 316 316 316 315 315 315 314 314 314 314 314 313 313 313 312 311 311
315 318 320 315 314 317 318 316 317 321 320 318 318 315 316 322 322 319 319 320 320 320 319 317 321 327 323 316 314 312 313 314 314 315 316 316 317 317 317 318 318 319 319 318 319 318 318 318 318 318 318 317 318 317 317 318 317 317 317 317 317 317 317 317 317 317 317 317 317 316 316 316 315 315 315 315 315 314 314 313 313 313 313 313 312 311
316 319 318 313 312 315 316 314 313 316 319 317 316 317 317 317 319 318 315 314 315 316 318 318 320 321 317 316 317 316 318 318 315 314 313 315 318 316 316 317 316 318 318 318 318 317 318 318 318 318 318 317 318 317 317 317 317 317 317 317 317 317 317 317 317 317 317 317 317 316 316 316 316 315 315 314 314 314 314 313 313 313 313 313 312 311
319 321 316 314 317 314 311 313 312 312 315 319 320 319 315 314 319 323 320 319 317 316 318 318 316 317 315 317 319 316 316 319 318 315 311 313 315 313 315 316 315 317 317 317 317 317 317 318 318 318 317 317 318 317 317 317 317 317 317 317 317 317 317 317 317 317 317 317 317 316 316 316 316 315 315 314 314 313 313 313 313 313 313 313 312 311
318 318 315 313 317 315 312 315 317 313 313 317 319 317 317 320 321 320 318 320 319 317 322 321 315 314 314 316 318 315 315 319 319 318 317 314 313 313 315 315 315 316 316 317 317 317 317 318 318 318 317 317 317 317 317 317 317 317 317 317 317 317 317 317 317 317 316 317 317 317 316 316 316 315 314 314 313 313 313 313 313 313 313 313 312 311
315 314 316 314 314 315 315 316 319 319 314 314 315 313 318 324 323 321 318 318 319 318 320 320 314 316 318 317 316 315 318 320 318 320 320 314 312 315 315 315 315 316 317 317 317 318 318 318 318 317 317 317 317 317 317 317 317 317 317 317 317 317 317 317 317 317 316 317 316 316 316 316 316 315 314 314 313 313 314 313 313 313 313 313 312 311
314 311 314 314 312 314 318 317 317 319 317 317 318 317 318 318 318 320 318 316 320 321 321 317 313 320 325 320 316 315 317 318 317 319 316 310 311 314 313 315 316 316 317 318 318 319 319 318 318 318 317 317 317 317 317 317 318 317 317 317 317 317 317 317 317 317 316 316 316 316 316 316 316 315 314 314 313 314 314 314 314 313 313 313 312 311
314 312 317 318 315 317 320 318 315 317 318 317 317 317 318 317 317 318 316 315 317 318 321 318 312 318 324 318 316 319 318 315 313 312 311 310 311 313 314 315 316 316 318 318 317 319 318 317 318 318 317 317 317 317 317 317 317 317 317 317 317 317 317 317 317 317 317 317 316 316 315 316 316 315 315 314 314 314 314 314 314 313 312 312 312 311
312 316 321 321 319 319 319 314 311 314 317 316 316 317 316 316 317 316 316 318 317 316 318 318 315 316 317 315 317 317 313 310 309 307 309 311 313 315 316 316 317 317 317 317 317 317 317 317 317 317 317 317 317 317 317 317 317 317 317 316 317 317 317 317 317 317 317 316 316 316 315 315 315 315 315 315 315 315 315 314 313 313 313 312 312 311
311 316 318 318 320 321 320 317 312 313 316 316 317 318 316 317 319 319 319 320 319 318 317 317 317 315 316 317 314 309 308 310 310 309 310 313 316 316 317 318 317 317 317 317 318 317 317 317 317 317 317 317 317 317 317 317 317 317 317 316 317 317 317 317 317 317 317 316 316 316 316 315 315 315 315 315 315 315 314 314 313 313 313 312 311 311
312 317 316 316 319 319 320 320 317 315 316 316 318 319 317 318 320 319 318 316 317 321 320 317 316 315 320 323 315 311 315 315 311 312 313 314 317 317 317 318 316 317 317 317 317 317 317 317 317 317 317 317 317 317 317 317 317 317 317 316 317 317 317 317 317 317 317 316 316 316 316 316 315 315 315 315 315 315 314 314 313 313 313 312 312 311
316 318 315 315 315 314 316 317 318 319 318 318 322 321 317 318 319 317 317 316 316 319 319 316 315 314 318 323 319 319 324 319 313 314 314 314 316 317 317 316 316 316 316 316 317 317 316 316 317 317 317 317 317 317 317 317 317 317 317 317 317 317 316 316 316 316 316 316 316 316 316 316 316 315 315 315 315 315 315 314 313 313 313 313 312 311
322 321 314 312 314 313 313 314 318 322 320 318 320 319 316 317 317 316 317 317 316 316 316 315 315 314 315 319 320 321 327 327 320 315 314 314 315 315 316 316 316 316 316 316 317 316 316 316 317 316 317 317 317 317 317 317 317 317 317 317 317 316 316 316 316 316 316 316 316 316 316 316 316 316 315 315 314 314 314 314 313 313 313 313 312 312
323 320 314 314 314 313 313 315 318 320 318 318 318 317 316 316 316 317 317 316 316 316 316 315 314 315 313 315 320 322 326 330 321 314 314 315 314 314 315 315 316 316 316 317 316 316 317 317 316 316 316 316 316 317 317 317 317 317 317 317 316 316 316 316 316 316 316 316 316 316 316 316 316 316 315 315 314 313 313 313 313 313 313 313 313 312
321 318 316 316 314 313 314 317 319 318 316 317 317 316 317 315 315 316 316 316 316 315 316 315 315 316 313 313 316 317 317 318 315 313 315 315 314 315 315 315 316 316 316 316 316 316 317 316 316 316 316 316 316 316 317 317 317 316 316 316 316 316 316 315 316 316 315 316 316 316 316 316 316 316 315 315 314 314 313 313 313 313 313 313 313 312
316 318 319 316 315 315 314 316 319 317 316 317 316 315 316 315 315 315 314 315 316 315 315 315 315 315 313 313 314 313 312 312 312 313 313 313 314 315 315 315 316 315 315 316 316 317 317 316 316 316 316 316 316 316 316 316 316 316 316 316 316 316 316 315 315 315 315 315 315 315 316 315 315 315 315 315 315 314 314 313 313 312 312 313 313 312
313 317 320 317 316 316 315 315 317 317 316 317 316 316 315 314 314 314 314 315 315 315 315 314 315 314 312 312 312 311 311 311 311 312 312 314 315 315 315 316 315 315 316 316 316 317 316 316 316 316 316 316 316 316 316 315 316 316 316 316 315 315 315 315 315 315 315 315 315 315 315 315 315 315 315 315 315 314 314 313 313 312 312 312 312 312
315 317 319 317 316 317 315 316 316 315 315 316 317 317 316 314 314 313 314 314 314 315 315 314 315 314 312 312 311 311 310 310 311 313 314 314 315 315 315 315 315 316 316 316 316 316 316 316 316 316 315 315 316 316 316 315 316 315 315 315 315 314 314 314 314 314 314 314 314 314 314 315 315 315 315 315 314 314 314 313 313 312 312 312 312 311
316 318 320 318 317 316 316 317 316 316 316 316 316 316 315 314 314 313 314 314 313 314 315 314 314 313 313 315 315 314 314 313 312 313 314 315 315 315 315 315 315 315 316 316 316 316 316 315 315 315 315 316 316 316 315 315 315 315 314 314 314 313 314 314 313 313 313 313 313 313 314 314 314 314 315 314 314 314 313 312 313 312 312 312 311 311
314 317 319 318 317 318 316 315 316 316 317 317 315 316 316 315 315 314 314 314 313 313 314 314 314 314 315 316 316 316 315 314 313 313 314 314 314 315 315 315 315 316 315 315 315 315 314 314 314 315 315 315 315 315 315 315 314 314 313 313 313 313 313 313 313 313 313 313 312 312 313 313 314 314 314 314 314 313 313 312 312 312 312 312 311 311
312 315 316 315 317 318 315 315 317 318 318 317 318 319 317 314 315 315 314 314 314 314 314 314 315 315 314 313 313 312 313 313 314 314 313 313 314 315 315 315 315 315 315 314 314 314 314 314 314 314 314 314 314 314 314 314 313 313 313 313 313 313 313 313 312 312 312 311 311 312 312 313 313 314 314 314 313 313 312 312 312 312 311 311 311 310
311 312 313 313 315 316 316 316 318 318 317 318 319 318 315 314 315 315 315 315 314 314 314 314 314 313 312 312 312 312 313 313 314 313 312 313 314 314 314 314 314 313 313 313 313 313 313 313 313 313 312 313 312 312 313 312 312 313 313 312 312 312 312 312 312 312 311 311 311 311 311 312 313 313 314 313 313 313 313 313 312 312 311 310 310 310
311 311 312 313 314 315 317 317 317 317 317 318 319 317 314 315 316 315 315 315 314 313 313 313 314 313 313 312 312 313 313 313 313 313 312 312 313 312 312 312 312 312 312 311 311 311 312 311 311 312 312 312 312 312 312 312 312 312 312 312 312 312 312 311 311 311 311 311 311 311 311 311 312 312 313 313 313 313 313 313 313 312 311 310 309 309
311 311 312 313 314 314 315 316 316 317 317 316 317 317 313 312 314 315 315 316 315 313 311 313 314 314 313 312 312 312 312 313 315 314 311 311 311 311 311 311 311 311 311 311 311 311 311 311 311 311 312 312 312 312 311 312 312 312 312 312 312 312 311 311 311 311 311 311 311 311 311 311 311 311 311 312 312 312 313 313 313 311 310 309 309 309
312 311 311 312 313 314 314 315 315 315 316 316 317 318 314 311 312 313 314 317 315 310 308 311 312 312 312 311 311 312 313 315 316 313 310 310 310 310 310 310 310 311 311 310 310 310 311 311 311 311 311 311 311 311 311 311 311 311 311 311 311 311 311 311 311 311 311 311 311 311 311 311 311 311 311 311 311 312 312 312 312 311 310 309 309 308
312 312 312 311 313 314 314 314 314 314 315 317 318 316 312 310 311 314 317 318 313 306 306 309 310 310 311 311 311 313 316 316 315 311 308 309 309 309 309 309 309 310 310 310 310 310 310 310 310 310 310 310 310 310 310 310 310 310 310 310 310 310 310 310 311 311 311 311 311 311 311 311 311 311 311 311 311 311 311 311 311 311 310 309 308 307
313 312 312 312 313 313 313 314 314 314 317 319 316 311 309 310 313 316 317 314 309 305 306 307 307 308 309 309 310 312 312 311 309 308 307 308 308 308 308 308 308 308 308 308 308 308 309 309 309 309 309 310 310 310 309 310 310 310 310 309 309 310 309 310 310 309 310 310 310 310 311 311 311 311 311 311 311 310 311 310 310 310 309 308 307 306
314 313 313 313 313 313 314 314 313 315 317 317 313 309 309 313 316 315 311 308 306 305 306 306 306 306 307 307 307 308 307 306 306 306 306 305 305 306 306 306 307 307 307 307 307 307 307 308 308 308 308 308 308 308 308 309 309 309 309 309 309 309 309 309 309 309 309 309 309 310 310 310 310 310 310 310 310 310 310 310 309 309 308 306 306 305
314 314 313 313 313 313 313 314 315 316 314 310 310 311 312 313 313 309 305 304 305 305 305 305 305 305 305 305 305 305 305 305 304 304 304 303 303 304 304 305 305 305 305 305 305 305 306 306 306 306 307 307 307 307 307 307 308 308 308 308 308 309 309 309 309 309 309 309 309 309 309 310 310 310 310 310 309 309 309 309 308 307 306 305 304 304
314 315 314 314 314 314 314 314 313 311 308 307 310 312 309 307 306 305 303 304 304 304 304 304 304 304 305 304 304 304 304 304 304 304 303 303 303 303 303 303 303 304 304 304 304 304 304 304 304 304 305 305 305 306 306 307 307 307 308 308 308 308 309 309 309 309 309 309 309 309 309 309 309 309 309 309 308 308 308 307 306 305 305 304 303 302
312 311 311 313 313 311 311 312 308 304 303 305 306 306 304 303 303 303 303 303 302 302 303 303 303 303 304 303 303 303 303 303 304 304 303 303 303 302 302 302 302 303 303 303 303 303 303 303 303 303 303 304 304 304 305 305 306 306 307 307 308 308 309 309 309 309 309 308 308 308 309 309 309 309 309 308 307 307 306 306 304 304 303 302 301 301
307 305 307 311 311 307 306 306 304 303 303 304 304 304 303 302 302 301 302 302 301 302 302 302 303 303 303 303 302 302 302 302 303 303 303 303 302 302 301 301 301 302 302 303 303 303 303 302 302 302 302 302 303 303 303 304 305 305 305 306 307 308 308 309 309 309 308 308 308 308 308 309 309 309 308 307 306 306 305 304 303 302 302 301 300 300
306 304 307 311 310 308 307 305 303 303 303 303 303 303 302 302 301 301 301 301 300 301 301 301 302 301 301 302 301 301 301 301 301 302 301 301 301 300 300 300 300 301 301 302 302 302 302 302 302 302 302 302 302 302 303 303 304 304 305 305 306 307 307 308 308 308 308 308 308 308 308 308 308 307 307 306 305 304 304 303 301 301 300 300 299 299
306 305 308 311 310 309 307 303 301 302 302 303 303 303 302 301 302 301 300 300 300 300 300 300 300 300 300 300 300 299 300 300 299 299 299 299 299 299 299 299 299 299 300 301 301 302 302 302 301 301 302 302 302 302 303 303 303 304 305 305 305 306 306 307 307 307 308 307 307 308 308 308 307 306 305 304 303 303 302 301 300 300 299 299 299 298
303 304 307 308 308 307 305 302 300 301 302 301 301 302 301 300 300 300 300 300 299 299 299 299 299 299 299 299 299 298 298 298 298 298 298 298 298 298 298 298 298 298 299 299 300 301 301 301 301 301 301 301 302 302 302 303 303 304 304 304 304 305 305 306 306 307 307 307 307 307 308 308 307 306 305 304 303 302 301 300 299 298 298 297 297 297
302 305 306 305 307 307 305 303 302 303 303 300 298 299 299 298 298 299 298 299 299 298 298 298 298 298 297 297 297 297 297 297 297 296 297 296 296 297 297 297 297 297 298 298 298 299 300 300 301 301 301 301 301 301 301 302 302 303 303 303 304 304 304 305 306 306 306 307 307 307 307 307 307 306 304 303 302 301 300 299 298 297 296 296 296 296
302 304 305 305 307 306 303 301 301 302 301 298 296 297 297 296 297 297 297 297 297 297 297 297 297 297 297 296 296 295 295 295 295 295 295 295 295 295 295 295 295 296 296 296 297 297 298 298 299 300 301 301 301 301 301 301 301 302 302 302 302 303 304 304 304 305 306 306 307 307 307 306 305 304 303 303 302 301 299 298 297 296 296 295 295 295
Wind_Speed
4 4 3 5 7 7 7 7 6 5 6 7 6 5 4 4 2 4 3 4 1 3 5 7 6 9 11 10 15 26 23 15 19 24 28 33 34 34 34 34 34 33 33 30 28 27 25 24 23 23 23 23 23 23 24 24 25 26 26 28 29 28 29 30 30 30 30 30 31 32 33 35 36 36 36 34 34 33 32 35 37 37 37 34 34 35
4 4 6 8 9 8 7 7 7 6 5 5 6 5 2 3 2 3 2 4 2 2 4 3 5 10 11 10 16 22 17 16 23 24 29 35 34 34 34 34 35 33 33 31 29 27 24 24 24 24 25 25 25 24 24 24 24 25 27 28 28 28 30 31 31 31 31 31 31 32 32 33 34 35 36 35 35 34 34 35 37 39 39 37 35 37
3 3 9 9 7 5 5 6 8 6 5 5 4 5 2 3 3 3 3 4 3 1 4 5 6 11 10 10 16 20 18 22 27 25 29 34 31 32 32 33 33 32 32 30 29 27 24 24 23 24 25 25 25 24 24 24 23 25 27 27 28 29 29 30 31 32 32 32 32 32 33 33 34 35 36 36 36 36 36 36 37 39 39 37 35 37
2 5 8 7 7 6 6 4 7 6 4 4 4 4 2 3 1 2 4 5 3 1 2 4 6 10 8 6 12 18 20 23 25 25 30 32 31 33 33 31 31 30 30 27 25 24 23 22 22 23 23 23 25 24 23 23 23 24 24 25 27 28 29 29 30 31 31 32 32 33 34 34 35 36 36 37 38 38 38 38 38 38 38 37 36 35
5 6 3 7 6 6 6 4 7 6 1 1 3 6 3 3 3 3 3 3 3 4 3 4 5 8 5 5 8 9 9 14 16 16 23 26 26 30 30 27 26 26 25 23 20 19 19 19 20 20 20 21 22 22 21 20 20 21 21 22 24 25 27 28 29 30 31 32 33 34 35 36 37 38 38 39 39 40 40 39 39 38 36 36 36 36
6 5 4 8 4 5 7 4 6 7 3 2 3 6 6 6 6 2 2 4 4 5 3 4 4 6 5 6 8 7 6 9 11 12 19 24 21 21 23 21 20 20 19 19 17 15 15 16 17 18 18 19 20 19 18 18 19 19 20 21 22 23 25 26 28 30 31 32 33 35 36 37 38 39 40 40 40 40 40 39 38 37 37 36 36 37
3 0 4 7 5 6 6 3 4 6 6 1 4 5 6 7 7 5 3 3 1 3 3 4 3 5 7 6 9 8 8 11 14 14 21 31 28 20 18 18 16 16 15 14 13 12 12 13 14 15 16 16 16 15 15 17 18 19 19 20 20 21 22 24 26 28 30 32 34 35 36 37 38 39 40 39 39 39 39 39 38 37 37 37 37 37
2 3 5 6 6 6 5 3 5 6 7 3 4 6 7 8 8 6 6 3 2 3 5 4 4 3 7 7 7 5 6 9 12 13 18 30 31 21 17 19 17 14 12 10 10 9 9 10 10 10 11 11 11 12 14 15 16 17 17 18 19 20 21 22 24 26 29 31 33 34 35 37 38 38 38 37 38 38 38 38 38 38 38 39 39 39
1 4 4 6 6 3 5 4 6 8 6 4 4 7 7 7 7 5 6 3 2 3 5 4 2 2 6 8 6 3 3 7 11 13 14 21 24 18 17 18 15 12 9 8 9 8 7 6 5 5 6 8 9 11 12 12 13 14 15 16 17 18 19 21 22 24 26 27 29 31 33 34 35 35 35 36 36 37 37 38 38 39 39 40 41 42
1 3 5 7 5 5 4 3 4 5 4 4 5 7 6 6 6 5 5 3 3 2 5 5 5 3 5 7 5 2 2 7 10 10 10 15 18 14 11 11 9 8 7 7 8 8 5 4 5 6 7 8 9 10 10 10 11 12 13 14 15 16 17 18 20 21 22 23 25 27 28 29 30 31 33 34 35 35 36 37 38 39 39 40 41 43
2 1 1 3 4 5 5 3 2 3 6 9 7 7 7 6 5 4 3 4 2 3 7 7 7 4 4 6 5 4 4 6 6 7 8 11 11 7 6 6 6 5 6 7 7 7 7 7 7 6 7 8 9 9 9 9 9 9 11 12 13 13 14 15 17 18 19 20 22 23 24 25 26 28 29 31 32 33 34 36 37 38 38 39 39 40
4 3 1 0 3 6 7 5 6 4 6 7 5 5 4 4 4 4 4 4 1 5 6 5 2 3 4 6 5 6 8 6 5 7 8 8 4 2 3 4 4 5 6 6 5 6 7 7 6 5 5 6 7 7 7 7 7 8 9 11 12 12 12 13 14 15 17 18 20 21 22 23 23 24 26 27 28 29 31 33 34 36 36 37 38 38
2 0 3 1 2 5 6 5 5 5 5 5 5 6 4 2 2 2 3 0 3 6 4 2 1 2 6 7 7 9 10 8 8 9 9 7 2 2 3 3 4 5 5 4 4 5 6 6 5 4 4 4 5 5 6 7 8 9 9 11 12 11 11 12 13 14 15 16 18 19 20 21 21 22 24 25 26 27 28 29 31 33 35 35 36 37
1 5 3 1 2 5 6 6 3 1 1 4 5 6 5 3 2 3 3 1 4 5 3 2 1 3 5 4 9 11 8 6 6 9 9 7 2 1 1 3 5 5 5 5 5 6 6 5 4 4 3 4 4 5 7 8 9 10 11 12 12 12 12 12 13 14 15 15 16 17 18 19 20 22 23 23 25 26 27 28 30 31 33 34 35 36
4 4 4 4 3 6 6 5 7 6 4 4 4 6 5 5 5 4 4 3 4 3 3 3 1 4 3 2 7 11 11 11 10 9 9 8 8 8 8 8 8 8 8 7 7 7 6 5 4 4 3 3 3 4 6 7 9 10 11 11 12 12 12 12 13 13 14 14 15 17 18 19 20 21 22 23 24 26 27 28 30 31 31 32 33 35
3 5 6 2 2 10 8 5 7 7 2 2 2 4 4 5 5 2 3 6 3 2 3 2 3 5 4 5 8 9 13 13 11 10 10 10 9 10 13 13 12 11 10 8 8 7 6 5 4 4 3 2 2 1 2 4 5 7 8 9 10 11 11 12 13 14 14 15 16 17 18 19 20 21 21 22 23 25 27 28 30 31 32 31 31 34
2 4 5 2 1 4 6 5 6 5 3 2 2 3 5 4 6 4 2 0 3 2 3 2 5 6 3 7 9 6 8 10 9 10 12 12 10 12 17 18 16 13 10 9 8 6 5 5 4 4 4 3 3 3 3 4 5 6 7 8 9 11 12 13 14 15 16 16 17 17 18 19 20 21 21 21 22 24 26 28 30 32 32 31 30 32
5 2 5 1 2 3 1 3 1 1 4 5 4 6 2 2 4 4 2 2 3 3 4 2 6 6 2 5 6 3 6 9 8 9 12 15 16 18 21 21 18 12 9 10 8 6 5 6 6 6 6 5 5 5 5 6 7 8 9 10 11 12 13 15 17 18 18 18 18 18 19 20 21 22 22 21 22 24 25 28 30 31 32 31 29 29
5 2 5 1 2 3 2 3 1 3 3 5 4 4 4 2 1 2 2 2 1 3 5 4 5 5 5 6 3 1 6 9 9 9 10 13 18 21 21 21 18 12 9 8 6 4 4 7 6 5 5 4 4 4 4 5 7 9 10 12 13 14 16 17 19 20 21 21 20 20 20 21 22 23 23 23 22 23 25 27 28 30 31 31 30 29
4 4 4 2 1 1 3 2 6 2 2 3 2 3 3 3 4 3 3 3 4 4 3 3 3 4 6 7 6 7 9 8 9 9 8 13 22 25 22 20 16 9 4 4 3 3 2 6 5 4 4 2 2 2 3 5 8 10 11 12 13 15 17 20 22 23 23 24 24 24 22 22 23 24 25 24 23 23 24 26 28 29 30 30 29 29
3 4 4 2 2 1 2 4 7 9 5 3 3 4 3 1 2 2 1 2 4 4 3 3 5 6 5 4 9 11 10 10 11 11 10 17 26 27 23 20 12 4 2 7 8 4 2 4 3 2 1 3 2 2 5 9 11 12 12 12 13 14 17 22 25 25 25 25 26 27 26 25 24 25 26 25 25 24 23 25 27 29 30 29 29 30
3 3 4 2 1 4 5 5 5 10 10 7 7 8 8 6 4 3 4 2 2 3 5 4 6 9 5 4 7 8 8 10 13 12 12 18 23 20 16 14 6 4 5 10 12 8 5 5 2 1 3 6 6 8 11 14 15 15 15 13 13 15 20 24 27 27 27 27 26 27 28 28 28 27 27 27 26 25 24 25 26 28 30 30 29 30
3 4 5 3 4 6 7 5 3 6 5 3 4 6 7 7 6 6 6 4 1 2 3 3 4 8 4 5 7 7 7 11 14 14 14 18 14 5 2 3 6 8 9 11 11 8 4 2 2 4 7 9 12 14 16 18 18 18 18 15 15 19 23 26 29 29 29 28 27 26 27 29 30 30 30 28 27 27 26 26 26 27 29 30 30 30
3 4 4 1 3 3 5 5 3 0 1 3 4 3 4 4 4 5 5 4 3 4 3 2 5 8 4 2 5 6 6 8 10 11 12 8 2 8 9 9 10 10 11 11 10 8 7 7 9 12 15 19 21 23 23 23 22 22 20 17 18 23 25 26 29 30 29 29 29 28 27 28 29 33 34 32 30 29 28 28 28 28 28 29 31 31
6 3 4 3 1 3 3 3 3 2 2 3 3 3 4 4 5 4 1 2 2 6 7 5 8 9 4 3 3 4 3 3 1 5 5 4 8 11 11 10 9 8 9 10 10 9 10 12 15 19 24 27 27 28 28 27 26 25 23 20 21 25 26 27 29 29 29 29 29 29 29 28 29 31 34 35 34 33 31 30 30 29 29 30 30 31
9 4 5 7 6 7 6 6 5 4 3 2 3 7 8 8 9 5 3 3 5 8 8 7 9 9 3 4 4 3 4 4 1 4 3 8 10 9 8 7 5 6 7 9 11 13 15 18 23 25 25 25 26 27 27 26 26 25 22 22 25 27 27 28 29 29 28 29 29 29 29 29 30 30 31 34 36 37 35 33 32 31 30 31 31 32
4 3 8 10 11 12 11 9 6 9 7 7 10 12 11 11 13 10 5 6 10 9 7 9 12 12 8 4 5 4 2 2 3 5 3 5 9 5 2 2 6 8 9 12 14 16 21 27 28 25 22 22 24 25 25 26 26 24 23 24 27 27 27 26 27 27 26 27 28 28 28 29 29 30 29 31 34 37 38 36 35 33 32 33 33 33
3 3 10 12 14 14 12 9 9 13 14 15 16 14 13 13 13 12 11 13 12 8 9 13 12 13 15 11 7 8 6 4 6 10 9 3 0 3 6 9 12 13 14 15 18 23 28 29 27 24 23 23 23 25 26 26 25 24 25 27 25 24 24 23 24 24 24 25 26 27 27 27 27 29 30 31 32 35 37 38 38 36 35 35 36 36
3 5 8 9 13 15 11 7 10 13 13 14 17 16 16 16 15 16 18 20 16 10 12 17 13 13 19 14 9 12 11 9 13 14 11 8 7 9 11 14 16 18 20 22 27 30 30 26 23 24 25 24 23 24 25 25 26 26 26 25 22 21 22 21 22 23 23 25 26 26 26 26 27 29 30 32 32 33 35 37 39 39 38 38 38 38
3 5 6 8 10 14 13 8 10 12 10 9 14 15 15 17 19 21 22 23 20 15 15 19 16 16 18 10 9 16 19 20 23 18 12 12 13 13 14 17 19 23 26 29 31 30 26 23 23 24 25 25 25 25 24 24 24 24 23 21 21 21 21 21 23 23 23 24 25 25 25 26 27 29 30 32 32 33 34 36 38 40 41 41 41 41
2 4 3 5 6 11 13 9 8 10 10 9 11 12 13 15 18 20 20 18 16 15 17 19 17 17 12 7 11 18 18 18 18 15 14 16 15 14 17 22 26 28 28 29 29 27 24 24 26 25 25 24 23 22 21 21 20 19 19 20 21 22 23 23 24 24 24 24 24 25 26 27 29 30 31 32 33 34 35 35 37 39 41 43 43 43
1 2 0 3 5 11 10 7 8 6 5 7 10 13 15 15 14 14 14 14 14 15 17 16 15 15 8 8 11 13 10 11 13 14 16 16 15 17 23 28 29 26 25 26 26 25 25 26 26 25 23 20 18 17 18 18 17 18 19 20 21 22 23 24 25 25 26 26 26 27 27 29 31 33 33 33 33 34 36 36 38 39 40 42 44 44
1 2 2 3 7 11 6 6 8 6 3 7 13 17 18 14 11 10 12 15 16 14 13 12 14 14 5 6 9 8 8 11 15 17 19 19 20 24 28 29 26 23 23 24 24 24 25 25 24 22 18 15 14 15 16 17 19 19 20 21 21 22 24 26 26 27 28 28 28 28 28 30 32 34 34 34 34 34 35 37 38 38 39 40 42 44
1 2 2 3 5 8 4 7 7 5 7 11 10 11 15 15 14 14 15 17 16 12 10 9 11 11 4 7 10 10 8 11 16 21 22 21 22 24 25 25 23 22 23 24 23 22 21 19 16 13 11 11 13 14 16 18 20 21 21 22 24 25 26 28 29 30 31 30 29 28 29 30 31 32 33 32 33 34 36 37 38 38 39 40 42 44
1 2 2 1 2 4 4 7 5 7 10 9 4 2 10 13 15 17 16 15 13 13 12 12 14 15 12 12 14 15 16 19 26 29 20 12 15 20 21 23 22 20 21 19 16 13 10 9 9 8 9 11 12 14 16 18 20 21 23 24 26 27 28 29 30 31 31 30 28 27 28 28 29 30 30 31 32 34 35 37 38 39 39 40 42 44
4 3 2 1 2 2 3 6 7 4 3 6 6 2 5 6 9 11 11 12 13 13 13 15 18 19 18 19 20 22 25 26 27 24 12 5 12 16 15 15 13 11 10 8 6 5 5 6 8 9 11 12 13 15 17 18 20 23 24 24 26 27 28 28 30 30 30 29 28 27 27 27 28 30 30 31 33 34 36 37 38 39 40 40 42 43
8 4 2 3 3 2 3 5 3 3 6 9 8 4 5 6 8 8 9 13 13 13 14 14 17 18 18 20 23 24 22 18 14 9 2 3 6 5 2 1 0 1 2 2 3 5 6 8 10 11 13 14 15 17 19 20 22 24 24 25 25 27 28 28 29 30 31 31 31 30 29 28 29 30 31 33 35 36 38 38 39 39 40 41 42 43
9 7 5 4 4 2 3 5 3 2 7 10 7 4 7 12 12 9 9 11 8 12 19 18 16 17 15 16 21 20 11 6 6 2 7 7 4 3 3 3 3 4 5 5 6 7 8 10 11 13 15 16 17 18 20 22 24 25 26 26 27 28 29 29 31 32 33 33 33 33 31 31 31 31 32 34 35 37 39 39 40 40 39 41 42 43
11 9 6 5 4 3 4 6 5 5 7 9 6 4 9 17 15 9 6 9 3 4 13 16 15 15 15 15 16 9 3 3 6 5 7 4 3 2 3 4 5 6 6 7 8 9 10 12 13 14 15 16 18 19 21 23 25 26 28 28 29 30 30 30 31 32 33 34 34 35 34 33 33 33 33 33 34 36 38 40 40 40 39 41 42 42
10 7 6 7 7 7 7 6 5 5 6 6 6 6 11 17 16 8 5 8 2 4 4 6 8 9 11 12 10 5 5 5 4 5 4 3 4 4 6 6 7 7 7 7 9 10 12 14 15 17 17 18 20 21 22 24 26 27 29 29 30 30 30 30 31 32 33 35 35 35 35 35 36 35 35 34 34 35 37 39 40 40 41 41 42 42
7 5 6 8 9 10 10 8 6 4 5 7 7 8 12 15 11 6 7 4 3 3 6 8 7 4 2 3 3 4 3 0 3 4 3 4 5 6 8 9 9 10 10 10 11 12 14 15 16 18 18 19 21 22 23 25 28 28 28 28 29 28 28 30 31 32 34 35 36 37 37 37 37 38 38 37 35 35 36 37 39 40 41 41 41 42
6 4 5 8 8 8 8 8 7 5 5 6 7 9 13 10 4 5 4 7 8 7 10 13 12 10 9 8 8 6 5 7 7 7 8 9 9 9 9 10 11 12 12 14 14 15 17 17 18 18 19 19 20 22 23 26 28 28 28 28 29 28 29 31 32 33 35 36 36 37 38 38 39 39 40 39 38 37 37 37 38 39 40 40 40 41
7 5 5 6 6 5 5 7 7 5 2 2 5 6 6 4 3 7 11 9 8 10 11 12 12 11 9 8 9 9 8 8 9 10 11 11 12 12 11 12 13 14 15 16 16 17 19 20 20 21 21 20 20 22 23 26 28 28 29 30 30 30 32 33 33 35 36 37 38 38 39 40 40 41 41 41 40 39 38 37 37 38 38 38 39 40
5 5 5 5 5 5 6 5 3 2 5 3 4 5 5 6 8 13 13 10 9 11 11 11 12 10 8 9 10 10 11 11 12 13 14 14 15 15 14 14 15 16 17 17 18 19 20 21 22 22 22 21 21 22 24 26 29 30 30 31 31 32 34 35 35 36 38 39 40 41 41 42 42 42 42 41 40 39 38 37 36 36 36 37 37 39
3 3 2 3 3 3 3 2 0 3 6 8 12 14 15 15 15 15 15 14 12 10 9 11 10 9 8 9 9 10 12 13 14 15 17 18 19 19 19 19 19 19 20 20 20 21 22 23 24 25 25 24 22 21 23 25 28 30 31 31 32 33 35 36 36 37 39 40 41 42 42 42 42 42 43 41 40 39 37 36 35 35 35 35 36 37
1 2 3 2 1 1 2 4 4 4 9 16 18 17 15 14 14 14 14 15 13 10 9 9 8 7 7 6 7 9 11 13 14 16 18 20 22 22 22 23 23 23 23 24 24 24 25 26 26 27 27 27 25 24 25 25 27 30 31 31 32 33 34 36 36 37 39 40 41 41 41 42 41 41 41 40 39 38 36 34 33 33 33 34 34 35
1 3 3 1 2 2 1 3 5 6 10 14 15 14 12 11 10 10 11 12 12 10 9 8 7 6 5 5 7 9 12 14 16 18 19 22 24 25 25 26 27 26 27 27 27 28 28 29 29 29 29 29 28 26 27 28 28 29 30 30 31 32 33 35 36 38 39 40 40 40 40 41 40 40 39 38 37 36 34 32 31 31 32 33 33 34
2 4 4 3 2 2 1 2 7 10 11 12 14 13 11 9 8 7 8 9 8 7 7 6 5 5 6 7 9 11 13 15 18 20 22 23 25 27 28 29 29 30 30 29 30 30 31 31 32 32 32 32 30 29 29 29 29 30 30 30 30 31 33 35 36 37 38 39 39 39 39 39 40 39 38 36 34 33 32 30 29 29 30 30 30 31
1 2 3 2 1 1 1 2 9 11 6 6 11 12 10 8 6 5 5 4 2 3 4 4 5 6 8 9 11 13 15 17 19 22 23 25 26 28 29 31 32 32 32 32 32 32 32 33 34 35 35 35 34 33 32 31 30 30 31 32 32 32 33 34 36 37 38 38 37 37 37 38 39 39 38 36 34 32 30 29 28 28 28 28 28 28
2 1 1 2 2 2 2 4 8 7 2 3 8 11 10 8 6 4 2 1 2 3 4 5 6 7 9 11 13 15 17 19 21 23 25 26 26 28 30 32 33 34 35 34 34 34 34 35 36 37 38 37 37 36 36 35 33 33 34 35 35 34 34 35 36 37 38 37 36 35 36 37 37 38 37 35 33 31 29 28 28 27 27 27 27 27
4 3 2 4 3 3 3 6 6 5 4 7 11 10 8 7 5 2 0 2 4 6 7 9 9 11 12 14 15 17 19 20 22 24 27 28 28 29 31 33 35 36 37 37 37 37 37 37 37 38 39 39 39 39 39 38 36 36 37 38 38 37 37 36 36 37 38 37 36 35 35 36 36 36 35 34 32 30 28 27 27 27 26 26 26 26
Wind_Direction
116 115 157 185 196 193 191 176 157 156 139 134 127 110 153 171 237 256 271 304 117 146 249 242 242 259 260 265 270 271 277 274 264 263 261 262 261 259 259 258 258 258 261 265 266 265 264 262 262 261 259 256 251 247 246 245 246 247 246 244 242 242 244 243 241 239 236 234 232 231 232 233 234 233 233 232 232 232 228 225 226 226 230 236 238 239
94 138 207 214 205 189 181 170 128 108 92 96 122 120 153 184 223 246 247 304 24 144 266 308 292 268 259 263 268 270 274 265 255 252 256 259 258 258 258 259 261 263 265 267 266 265 262 259 257 256 255 253 252 251 248 249 250 249 248 247 245 243 243 244 244 242 240 239 238 239 239 239 239 238 237 238 237 235 232 228 228 229 233 238 237 235
65 198 234 225 199 147 118 138 123 108 92 82 118 127 171 227 263 295 296 313 18 131 272 352 330 276 263 257 262 262 256 258 258 253 256 260 260 260 260 262 265 268 269 269 267 267 266 262 257 255 254 253 254 253 251 252 251 250 251 250 248 246 244 244 245 245 243 242 241 241 242 242 242 242 241 242 243 240 238 236 235 234 235 238 237 234
124 244 243 202 164 117 89 129 123 99 88 91 114 131 212 255 257 271 289 312 0 43 277 354 322 283 283 277 267 262 256 263 267 261 259 259 259 262 263 265 268 270 271 272 271 270 268 265 259 255 254 252 251 250 250 251 251 251 252 253 252 249 248 246 246 246 246 244 242 240 241 242 242 244 243 243 244 243 243 242 241 241 239 237 238 236
201 256 215 133 136 125 106 130 141 135 145 16 134 145 189 220 171 203 273 315 354 359 16 32 331 290 310 325 288 280 274 273 276 275 268 259 256 260 262 263 263 266 270 273 275 273 269 266 262 259 256 252 249 248 249 251 252 255 256 257 255 253 251 249 247 247 246 244 243 241 240 241 241 242 242 242 243 244 244 244 244 243 240 235 236 236
235 264 137 120 105 117 118 143 171 163 166 300 234 178 173 169 156 162 355 29 29 344 331 39 353 288 314 318 280 294 319 296 293 297 284 275 265 257 258 261 260 263 269 273 276 273 268 264 259 257 253 249 247 247 248 250 253 256 258 258 256 255 252 250 249 247 247 246 245 244 243 243 242 242 243 243 245 245 246 247 246 243 240 238 236 234
237 332 103 125 125 118 119 157 198 152 125 252 244 178 147 127 121 123 90 59 72 262 295 55 103 266 303 290 260 278 296 290 291 292 284 280 275 264 261 265 262 266 273 276 277 272 264 259 255 252 248 246 246 246 246 247 250 253 255 256 255 254 252 251 251 249 249 249 248 249 248 249 250 250 251 252 252 252 251 252 250 246 240 238 237 234
173 92 65 93 102 106 126 181 207 140 120 228 231 140 128 119 127 135 111 101 229 254 318 17 122 232 290 270 257 276 280 280 280 279 276 272 271 272 269 263 260 267 278 280 270 263 261 260 257 251 243 240 238 239 241 243 248 252 255 257 256 255 253 250 250 250 250 250 251 252 252 253 254 255 257 257 256 256 255 254 253 251 244 239 236 233
154 154 163 130 102 126 176 221 203 132 108 240 203 127 130 130 130 118 102 100 4 8 311 309 130 206 269 274 294 338 287 278 268 261 263 268 275 283 274 263 261 266 269 262 247 243 257 258 241 224 214 218 221 226 234 239 245 250 252 254 253 252 251 249 249 249 249 251 252 253 253 255 256 257 258 257 257 256 255 254 254 254 252 246 240 233
49 177 191 142 131 188 205 256 201 138 108 179 141 96 77 77 85 78 94 110 43 2 256 226 174 211 267 279 300 350 287 262 261 262 266 277 284 283 271 263 262 258 242 231 226 222 224 199 178 181 184 195 206 213 223 231 237 243 248 249 250 250 249 248 249 249 250 251 252 253 254 256 257 257 256 256 256 255 254 253 252 253 254 253 248 239
332 82 167 116 149 179 151 73 58 125 137 134 100 63 49 33 42 46 58 86 68 285 256 222 189 198 275 277 252 229 225 226 258 288 285 284 288 279 267 260 247 233 211 208 210 205 195 178 172 177 179 187 197 205 215 222 230 241 247 249 250 249 249 249 250 251 252 253 255 256 258 259 259 259 257 257 257 256 255 254 253 253 253 254 253 247
353 67 1 54 147 130 105 63 36 53 110 110 80 76 70 351 9 21 2 47 135 252 265 266 214 165 238 258 250 250 252 238 239 264 277 293 303 256 228 220 200 188 185 186 193 201 194 185 185 186 185 194 203 215 223 227 234 243 250 254 255 253 252 255 256 257 258 258 260 261 262 263 263 262 261 261 261 260 259 257 256 255 254 253 253 250
2 145 299 342 182 155 113 73 34 14 39 76 91 100 95 337 5 342 301 248 225 245 266 298 283 216 235 241 253 263 262 251 230 227 254 279 266 123 127 171 187 181 184 189 187 200 203 199 204 205 210 225 234 246 249 246 245 249 256 261 263 263 261 261 262 263 264 265 267 267 267 267 266 265 266 267 267 265 264 262 260 257 255 253 252 249
277 307 308 78 263 213 152 124 138 247 89 128 136 133 138 136 137 251 262 264 262 262 284 304 239 253 275 261 241 243 248 262 261 248 259 273 257 356 324 230 227 211 214 224 201 193 205 213 217 219 231 246 252 261 263 262 262 262 265 268 271 271 266 265 267 268 270 272 274 274 273 271 268 267 268 269 270 269 268 267 265 263 260 255 252 250
186 280 224 174 200 192 179 172 160 147 154 181 155 136 155 160 165 207 212 213 250 279 297 300 240 204 227 273 245 250 272 288 287 277 277 277 266 269 265 247 239 233 231 228 208 197 210 220 217 213 217 230 246 264 272 277 278 276 277 278 280 278 274 272 273 273 275 278 280 279 278 276 272 270 269 269 270 270 271 271 271 271 268 262 255 251
167 255 243 227 151 164 175 191 148 117 116 229 115 112 187 190 151 133 190 182 181 310 299 251 233 216 209 273 271 266 283 287 280 276 278 273 264 263 265 258 246 237 235 234 225 219 224 221 204 182 171 183 207 265 294 312 313 307 303 296 290 285 278 275 273 274 277 279 279 278 278 278 275 272 269 269 270 272 274 275 276 276 275 271 260 252
146 271 275 0 45 174 167 171 155 139 169 178 144 183 216 177 123 107 245 122 81 261 272 207 248 284 325 288 281 272 280 291 289 281 279 273 265 266 271 269 257 243 239 243 243 242 233 209 184 160 144 135 116 94 64 43 24 7 352 335 321 302 283 274 272 274 276 277 275 274 274 274 273 272 271 271 272 274 276 277 278 278 279 276 266 253
155 245 289 122 189 262 133 131 107 54 129 134 187 206 181 88 91 108 211 344 40 248 272 244 242 274 303 271 303 327 263 276 288 281 279 276 267 265 269 270 264 252 250 258 260 253 222 185 170 155 141 127 115 102 82 62 42 27 14 2 351 334 313 295 284 276 272 270 270 270 270 271 271 272 271 272 272 273 275 277 279 280 280 279 272 257
152 185 298 27 178 275 24 115 240 351 96 133 185 177 115 124 205 109 162 199 166 234 271 285 261 253 218 223 280 283 222 241 264 268 275 273 263 258 259 264 267 263 267 278 274 253 201 167 163 156 142 127 111 98 79 54 28 16 7 0 356 349 340 327 311 295 280 272 269 269 270 270 271 271 270 270 271 272 275 279 281 282 282 280 275 264
145 177 263 319 240 305 43 151 201 200 55 61 93 112 100 147 174 166 165 170 172 201 246 300 304 257 227 205 192 210 217 215 234 250 257 252 249 249 253 265 273 264 274 333 344 300 189 157 162 158 147 136 121 100 52 20 1 354 347 345 345 344 342 336 328 318 303 289 279 273 271 269 270 271 272 271 269 271 275 279 282 283 283 281 275 267
130 185 228 311 336 199 173 209 191 170 158 142 154 177 192 127 108 166 193 131 143 171 197 263 277 262 252 195 177 200 217 213 219 232 237 242 248 253 257 263 260 213 66 18 18 12 132 149 159 172 238 311 308 336 351 344 336 331 329 330 332 335 337 333 327 322 317 308 294 282 275 272 272 271 272 272 270 270 273 276 280 282 283 280 275 267
171 179 174 146 206 205 224 247 193 179 183 174 180 193 191 172 136 168 235 228 128 170 179 196 266 266 243 195 185 196 211 221 225 226 236 251 258 264 262 252 223 126 59 28 30 42 95 127 127 217 308 324 323 324 328 326 322 318 315 319 326 332 335 331 324 319 316 314 308 297 285 278 275 273 271 270 269 270 271 272 276 279 281 279 275 268
137 113 133 170 214 217 243 265 225 207 211 189 203 199 186 186 166 170 214 220 151 216 177 138 268 270 237 190 204 217 228 244 245 232 235 254 263 272 247 164 110 79 54 42 36 37 54 60 342 323 324 325 319 316 313 310 309 307 304 307 320 331 332 327 320 317 315 313 312 309 299 288 281 277 275 272 271 271 270 271 273 275 278 278 274 269
120 108 142 219 312 312 307 321 355 48 188 228 241 185 158 195 174 157 190 179 167 210 189 146 250 263 272 214 223 245 255 269 267 238 225 238 166 105 102 98 84 62 50 48 42 35 19 345 329 325 322 318 314 312 310 305 304 303 301 304 316 326 327 321 315 313 313 312 311 310 306 300 290 282 279 277 276 275 272 271 272 273 276 277 275 270
178 176 144 137 332 323 323 321 307 264 198 217 241 191 174 163 111 89 122 130 206 222 190 185 238 254 290 318 275 281 306 335 305 192 179 94 91 106 103 90 77 60 45 31 17 4 348 332 323 318 316 313 310 308 307 307 307 306 303 304 315 322 322 316 311 309 309 309 309 307 305 304 299 290 284 281 279 279 277 274 272 272 274 276 275 271
176 192 161 165 201 215 215 222 215 195 180 211 221 205 196 169 152 169 198 168 226 230 191 194 238 249 302 336 297 314 11 14 115 170 130 87 98 106 95 79 51 32 11 350 342 335 327 320 316 315 312 308 304 302 304 306 308 305 301 306 317 321 318 313 309 307 307 307 306 304 303 303 301 299 293 286 281 279 279 278 275 272 273 275 275 273
146 211 192 194 207 209 214 217 177 142 156 206 218 206 199 193 186 190 193 199 219 229 219 225 238 246 253 256 261 277 314 302 259 251 249 116 117 120 86 18 333 332 327 326 327 321 315 313 314 315 310 303 301 301 302 304 303 300 303 313 319 317 313 311 308 307 307 305 304 303 302 302 302 302 299 292 286 281 278 278 277 275 274 273 274 274
100 219 207 209 218 221 222 209 169 157 176 201 213 207 201 201 193 192 209 219 218 221 240 237 227 240 249 234 222 252 260 258 260 258 259 261 30 290 302 308 306 307 310 313 313 310 309 310 311 311 306 302 300 299 299 300 300 303 310 315 315 311 311 310 308 307 306 304 302 301 301 302 301 299 297 294 290 285 280 277 277 277 276 274 273 273
133 215 213 207 224 236 234 195 171 182 191 200 208 207 201 198 192 198 215 224 218 209 237 241 218 221 244 238 213 231 233 230 246 249 251 269 282 286 296 300 297 297 301 303 303 304 306 306 305 304 302 301 300 298 299 301 304 309 313 312 309 309 311 310 307 307 305 303 302 301 301 301 298 296 295 294 293 290 286 281 279 278 277 277 276 274
165 215 216 196 218 243 238 202 180 193 199 206 213 210 203 199 198 204 214 223 223 218 233 247 238 233 244 235 212 230 233 235 246 251 251 257 264 275 286 289 289 291 295 297 298 299 300 299 298 298 299 300 300 300 301 303 306 308 308 308 310 313 314 311 309 309 307 306 307 306 305 302 298 295 295 295 295 293 291 287 283 280 279 278 278 275
193 216 217 169 204 246 239 207 182 193 199 210 223 223 215 208 208 213 218 223 226 228 235 245 252 255 248 203 213 236 233 228 238 241 241 247 256 271 280 281 283 285 289 292 294 293 293 294 296 298 301 304 305 305 304 304 305 306 307 311 314 316 316 315 314 313 311 312 313 311 308 304 301 299 296 295 295 293 292 291 287 284 282 280 278 277
192 207 74 119 202 242 236 186 170 178 188 216 232 228 218 213 213 215 218 220 216 220 231 237 247 255 235 171 214 230 197 197 221 228 236 247 258 270 275 274 274 277 282 286 287 288 290 293 297 302 304 306 307 306 307 308 309 311 313 315 316 317 318 318 317 317 316 317 316 313 310 306 302 300 299 298 297 295 294 292 288 285 283 281 280 278
140 151 152 156 210 241 231 151 148 137 146 233 236 224 214 211 212 211 220 227 220 213 218 223 234 245 217 159 217 222 169 196 223 229 241 256 264 267 268 268 271 276 279 281 282 284 289 293 297 301 302 304 305 306 310 312 313 315 317 317 319 321 321 320 318 317 317 317 316 313 310 304 300 299 299 300 299 297 295 291 288 286 285 283 282 279
110 116 171 176 208 234 198 128 130 151 206 233 235 209 204 204 204 208 221 226 221 216 223 233 249 257 217 170 212 226 205 215 238 246 251 258 263 265 266 270 278 282 282 281 282 284 288 292 296 301 304 305 303 302 305 308 310 314 318 320 322 322 321 319 317 316 316 316 315 312 308 303 300 298 299 299 299 296 294 292 290 288 286 284 281 278
129 127 191 185 196 219 148 126 166 208 219 243 293 181 197 200 199 210 226 229 219 217 227 243 256 256 240 221 224 234 240 248 259 264 262 254 259 267 272 276 282 284 283 284 283 284 290 296 302 308 307 306 306 304 305 307 309 313 317 321 322 320 319 316 314 314 315 314 313 311 308 304 300 298 297 297 296 294 292 291 290 288 287 284 282 280
180 166 191 197 180 182 156 175 209 238 271 288 300 263 193 186 187 206 235 242 224 210 214 230 241 245 248 247 243 245 253 258 264 270 275 268 267 272 276 277 278 280 282 285 287 293 307 311 314 315 313 314 315 313 313 314 313 315 318 321 321 318 316 314 313 313 313 312 312 311 309 305 301 297 296 294 292 291 290 289 289 288 288 286 283 281
185 170 170 211 202 192 212 216 228 323 307 275 259 222 174 176 177 185 228 245 229 205 205 224 237 243 246 247 247 251 254 261 272 277 237 194 238 256 283 306 268 310 328 345 334 321 316 315 316 317 315 316 316 315 316 315 314 315 317 318 316 313 311 310 311 312 312 312 314 313 310 306 302 300 297 294 292 292 291 290 289 288 287 285 284 281
189 188 182 203 209 184 224 250 257 258 255 249 236 187 176 189 183 175 213 248 241 203 206 217 231 240 242 246 252 251 244 258 281 227 138 132 128 102 61 45 33 3 351 338 325 318 311 310 311 312 313 314 315 315 314 312 312 312 312 313 311 308 307 308 309 310 309 309 311 312 311 308 304 301 297 295 293 292 292 290 289 288 287 285 284 282
195 199 187 195 218 204 210 236 235 226 246 247 225 195 193 189 173 149 200 239 269 227 223 225 232 242 244 249 254 247 172 232 252 176 128 89 41 29 354 348 348 346 344 332 321 316 312 311 311 311 312 312 312 313 311 310 310 309 310 311 309 307 308 308 307 306 305 305 306 306 306 307 305 302 299 296 294 293 291 290 288 286 285 283 282 281
196 199 195 202 216 217 219 235 237 234 254 246 218 215 201 177 152 133 211 228 259 356 303 225 220 239 244 242 240 196 170 227 224 141 116 31 18 8 349 348 345 343 342 333 322 317 314 314 312 311 312 312 311 311 310 307 306 307 309 309 308 309 310 308 305 304 303 302 302 301 302 302 302 302 300 298 296 293 290 288 286 284 281 279 279 279
196 194 199 205 214 217 220 233 246 246 243 231 214 195 171 152 146 187 222 198 134 58 53 87 103 89 99 154 157 150 166 178 72 86 55 29 30 12 358 355 350 347 344 336 330 324 317 314 313 312 313 314 313 312 310 308 306 307 308 308 308 310 309 305 303 303 302 301 301 301 300 299 299 299 299 298 296 293 290 288 285 283 281 279 278 277
192 192 199 206 216 221 221 231 244 256 244 213 190 166 153 151 191 212 158 102 106 103 77 76 75 63 63 68 62 63 58 44 42 37 31 31 24 12 3 351 343 342 338 333 332 329 322 319 319 317 315 317 316 314 312 309 307 308 307 307 308 309 306 303 303 303 302 302 301 301 300 298 297 296 296 296 294 291 289 288 285 283 281 279 277 275
180 187 198 200 204 208 222 230 230 249 289 126 141 152 161 183 181 128 114 101 97 90 78 74 68 56 50 48 43 41 40 35 28 21 18 16 12 9 2 348 340 337 333 330 331 330 324 321 321 320 320 322 323 321 318 314 311 309 307 306 308 307 304 304 304 303 303 303 303 302 300 297 295 295 295 295 293 290 288 286 284 282 280 277 276 275
190 194 201 204 200 199 216 228 215 278 323 9 127 137 111 103 112 114 112 109 96 80 70 65 58 47 38 31 28 23 17 11 6 359 354 353 355 354 350 346 343 335 330 330 329 326 323 320 319 319 320 323 325 324 322 318 315 312 310 310 310 307 304 304 304 303 304 305 304 303 301 298 296 295 295 295 294 291 288 286 284 282 279 277 275 274
205 178 174 192 202 189 191 199 111 355 9 56 92 106 101 96 100 104 101 95 86 74 67 65 58 49 39 25 16 12 3 353 346 341 338 338 340 341 341 340 338 333 331 330 328 326 323 320 320 319 318 319 321 320 317 315 312 311 312 313 311 307 305 303 302 303 305 306 306 304 302 300 298 297 297 297 295 292 289 287 285 282 280 278 275 273
190 128 86 96 220 264 105 125 122 81 75 85 94 102 102 97 95 98 97 93 89 84 79 76 70 61 52 29 7 3 355 344 336 330 327 326 328 331 331 330 330 331 329 327 327 326 323 321 320 319 318 318 318 317 314 311 309 309 310 311 309 307 305 302 301 302 305 307 306 305 304 302 301 300 300 298 296 294 291 288 284 281 279 277 274 273
252 162 133 96 242 248 151 138 146 132 117 113 110 109 108 102 96 93 92 93 94 90 80 77 71 57 45 21 360 353 345 338 333 326 322 322 322 323 325 324 325 326 325 325 325 324 322 321 320 319 318 317 317 317 314 311 309 309 309 307 305 303 302 300 299 301 303 305 307 306 305 305 304 304 303 300 297 295 291 288 284 281 277 275 273 272
221 170 173 207 219 195 190 148 131 130 130 127 124 122 117 109 103 95 87 87 90 83 70 63 44 17 8 0 352 344 336 333 330 326 322 321 319 319 320 320 320 321 321 321 321 319 318 318 318 318 316 315 316 316 313 311 310 310 309 307 305 301 298 296 296 297 298 301 304 304 305 306 306 306 305 302 298 294 291 288 284 280 277 276 275 274
117 151 176 180 174 193 250 120 116 115 113 116 124 129 129 123 119 114 104 103 101 71 50 34 10 354 346 340 336 331 328 326 325 323 320 319 318 317 315 315 316 316 317 319 319 318 317 316 315 315 314 314 315 315 312 311 311 311 311 310 307 303 299 296 294 293 294 296 300 302 303 304 304 305 304 301 297 293 290 286 282 279 277 275 273 272
111 177 172 111 142 223 214 155 137 125 118 156 142 140 142 142 144 144 132 104 344 348 349 349 348 341 333 329 327 325 324 323 322 320 317 317 318 316 313 313 313 312 313 315 316 315 315 314 313 312 310 311 312 312 311 311 310 311 312 311 309 305 302 299 296 294 293 294 296 298 299 299 300 300 300 298 295 291 287 284 280 277 275 272 270 268
172 190 170 136 175 225 182 160 152 120 118 159 161 154 149 148 152 162 111 15 357 347 340 333 329 325 324 325 325 324 322 319 318 316 314 313 315 314 312 312 312 311 311 312 312 312 312 311 310 308 306 306 307 308 308 308 307 308 310 311 310 306 302 300 299 296 294 293 293 294 294 294 294 295 295 295 292 289 285 282 279 276 274 272 270 267